This is the latest recevied weather packets stored in our database for station/object KA1JKB. If no packets are shown the sender has not sent any weather packets the latest 10 day(s).
| Time | Temp. | Humidity | Pressure | Rain* | Wind** | Luminosity | Snow |
|---|---|---|---|---|---|---|---|
| 1787912785 | 8.89° C | 99% | 1017.8 hPa | 0 mm | - | 0 W/m² | - |
| 1787912480 | 9.44° C | 99% | 1017.7 hPa | 0 mm | - | 0 W/m² | - |
| 1787912179 | 9.44° C | 99% | 1017.7 hPa | 0 mm | - | 0 W/m² | - |
| 1787911874 | 9.44° C | 99% | 1017.7 hPa | 0 mm | - | 0 W/m² | - |
| 1787911574 | 9.44° C | 99% | 1017.6 hPa | 0 mm | - | 0 W/m² | - |
| 1787911274 | 10° C | 99% | 1017.6 hPa | 0 mm | - | 0 W/m² | - |
| 1787910970 | 10° C | 99% | 1017.5 hPa | 0 mm | - | 0 W/m² | - |
| 1787910668 | 10° C | 99% | 1017.3 hPa | 0 mm | - | 0 W/m² | - |
| 1787910366 | 9.44° C | 99% | 1017.4 hPa | 0 mm | - | 0 W/m² | - |
| 1787910062 | 10° C | 99% | 1017.5 hPa | 0 mm | - | 0 W/m² | - |
| 1787909759 | 10.56° C | 99% | 1017.4 hPa | 0 mm | - | 0 W/m² | - |
| 1787909459 | 10.56° C | 99% | 1017.3 hPa | 0 mm | - | 0 W/m² | - |
| 1787909154 | 10° C | 99% | 1017.4 hPa | 0 mm | - | 0 W/m² | - |
| 1787908850 | 10° C | 99% | 1017.2 hPa | 0 mm | - | 0 W/m² | - |
| 1787908549 | 10.56° C | 99% | 1017.3 hPa | 0 mm | - | 0 W/m² | - |
| 1787908250 | 11.11° C | 99% | 1017.3 hPa | 0 mm | - | 0 W/m² | - |
| 1787907949 | 11.11° C | 99% | 1017.1 hPa | 0 mm | - | 0 W/m² | - |
| 1787907645 | 11.11° C | 99% | 1016.9 hPa | 0 mm | - | 0 W/m² | - |
| 1787907344 | 11.67° C | 99% | 1017.1 hPa | 0 mm | - | 0 W/m² | - |
| 1787907040 | 12.22° C | 99% | 1017 hPa | 0 mm | - | 0 W/m² | - |
| 1787906737 | 12.22° C | 99% | 1017.2 hPa | 0 mm | - | 0 W/m² | - |
| 1787906432 | 12.78° C | 99% | 1016.9 hPa | 0 mm | - | 0 W/m² | - |
| 1787906131 | 12.78° C | 99% | 1016.9 hPa | 0 mm | - | 0 W/m² | - |
| 1787905827 | 12.78° C | 99% | 1016.8 hPa | 0 mm | - | 0 W/m² | - |
| 1787905522 | 12.78° C | 99% | 1016.8 hPa | 0 mm | - | 0 W/m² | - |
* Rain latest hour (hover to see other rain measurements)
** Current wind speed in m/s (hover to see current wind gust speed)